Regional Weather Roundup
Issued by NWS

Home | Current Version | Previous Version | Graphics & Text | Print | Product List | Glossary On
Versions: 1 2 3 4 5 6 7 8 9 10 11 12 13 14 15 16 17 18 19 20 21 22 23 24 25 26 27 28 29 30 31 32 33 34 35 36 37 38 39 40 41 42 43 44 45 46 47 48 49 50
000
ASUS43 KOAX 300002
RWRNE

WEATHER ROUNDUP FOR NEBRASKA
NATIONAL WEATHER SERVICE OMAHA NE
700 PM CDT WED JUL 29 2015

NOTES: SATELLITE DATA IS BEING USED TO AUGMENT CLOUD COVER ABOVE
       12000 FEET.
       "FAIR" INDICATES FEW OR NO CLOUDS BELOW 12,000 FEET WITH NO
       SIGNIFICANT WEATHER AND/OR OBSTRUCTIONS TO VISIBILITY.

  * THESE STATIONS DO NOT REPORT WEATHER SUCH AS RAIN...SNOW OR FOG.

NEZ001>004-019>022-054>056-300100-
NEBRASKA PANHANDLE

CITY           SKY/WX    TMP DP  RH WIND       PRES   REMARKS
SCOTTSBLUFF    SUNNY     86  50  28 E12       30.18F
6HR MIN TEMP:  76; 6HR MAX TEMP:  88;

ALLIANCE       SUNNY     83  49  30 S14       30.20S
6HR MIN TEMP:  77; 6HR MAX TEMP:  85;

CHADRON        SUNNY     86  48  26 NE5       30.15F
6HR MIN TEMP:  78; 6HR MAX TEMP:  88;

KIMBALL        SUNNY     80  47  30 S13G23    30.23F
SIDNEY         SUNNY     81  45  28 S17       30.24F
6HR MIN TEMP:  79; 6HR MAX TEMP:  85;

$$

NEZ057>060-069>072-079>082-300100-
SOUTHWEST NEBRASKA

CITY           SKY/WX    TMP DP  RH WIND       PRES   REMARKS
NORTH PLATTE   SUNNY     81  47  30 S8        30.20F
6HR MIN TEMP:  77; 6HR MAX TEMP:  83;

IMPERIAL       SUNNY     84  39  20 SE15      30.21F
6HR MIN TEMP:  76; 6HR MAX TEMP:  85;

MCCOOK         SUNNY     83  48  29 SE10      30.20F
6HR MIN TEMP:  74; 6HR MAX TEMP:  85;

$$

NEZ005>010-023>029-035>040-094-300100-
NORTH CENTRAL NEBRASKA

CITY           SKY/WX    TMP DP  RH WIND       PRES   REMARKS
VALENTINE      SUNNY     85  46  25 W10       30.15F
6HR MIN TEMP:  83; 6HR MAX TEMP:  88;

AINSWORTH      SUNNY     80  49  33 SW5       30.17F
BROKEN BOW     SUNNY     82  51  34 SW6       30.20F
6HR MIN TEMP:  79; 6HR MAX TEMP:  84;

ORD            SUNNY     83  53  35 W7        30.16F
6HR MIN TEMP:  81; 6HR MAX TEMP:  86;

$$

NEZ041-046>049-061>064-073>077-083>087-300100-
SOUTH CENTRAL NEBRASKA

CITY           SKY/WX    TMP DP  RH WIND       PRES   REMARKS
GRAND ISLAND   MOSUNNY   80  53  39 SW7       30.19F
6HR MIN TEMP:  78; 6HR MAX TEMP:  84;

AURORA         MOSUNNY   78  59  52 SW7       30.19F
HASTINGS       MOSUNNY   81  51  35 CALM      30.20F
6HR MIN TEMP:  78; 6HR MAX TEMP:  82; 6HR PCP: TRACE;

KEARNEY *      SUNNY     81  52  36 SE7       30.20F
$$

NEZ011>018-030>034-042>045-300100-
NORTHEAST NEBRASKA

CITY           SKY/WX    TMP DP  RH WIND       PRES   REMARKS
NORFOLK        SUNNY     85  50  29 W3        30.13F
6HR MIN TEMP:  82; 6HR MAX TEMP:  86;

BLAIR          PTSUNNY   79  62  54 SW5       30.15S
COLUMBUS *     SUNNY     81  57  44 SW8       30.15S
FREMONT        MOSUNNY   80  59  47 SW6       30.15F
TEKAMAH        SUNNY     82  65  56 SW5       30.12F
6HR MIN TEMP:  82; 6HR MAX TEMP:  85;

$$

NEZ050>053-065>068-078-088>093-300100-
SOUTHEAST NEBRASKA

CITY           SKY/WX    TMP DP  RH WIND       PRES   REMARKS
LINCOLN        PTSUNNY   83  54  36 W5        30.17F
6HR MIN TEMP:  82; 6HR MAX TEMP:  88;

OMAHA EPPLEY   PTSUNNY   82  57  42 W6        30.13F
6HR MIN TEMP:  81; 6HR MAX TEMP:  86;

FALLS CITY     SUNNY     80  64  58 CALM      30.14F
6HR MIN TEMP:  80; 6HR MAX TEMP:  84;

$$

NEZ044-045-051>053-067-300100-
OMAHA AREA

CITY           SKY/WX    TMP DP  RH WIND       PRES   REMARKS
OMAHA EPPLEY   PTSUNNY   82  57  42 W6        30.13F
6HR MIN TEMP:  81; 6HR MAX TEMP:  86;

BLAIR          PTSUNNY   79  62  54 SW5       30.15S
FREMONT        MOSUNNY   80  59  47 SW6       30.15F
OFFUTT AFB     PTSUNNY   80  58  45 SW5       30.14S
$$


USA.gov is the U.S. government's official web portal to all federal, state and local government web resources and services.